KC9CW-13 Weather Reports


time (UTC)temp
F
wind
direction
speed
knots
gust
knots
rain 1hr
in
rain 24hr
in
rain mn
in
humidity
%
barometer
mb
20260905191004 96 312 0.9 7.8 0.00 0.00 0.00 46 1011.7
20260905190504 97 285 1.7 6.1 0.00 0.00 0.00 47 1011.8
20260905190008 97 352 0.0 2.6 0.00 0.00 0.00 47 1011.8
20260905185508 97 23 0.9 6.1 0.00 0.00 0.00 47 1011.9
20260905185012 98 350 2.6 6.1 0.00 0.00 0.00 47 1012.0
20260905184518 98 342 0.9 5.2 0.00 0.00 0.00 46 1012.0
20260905184010 97 324 0.9 7.0 0.00 0.00 0.00 46 1012.1
20260905183508 98 99 3.5 7.0 0.00 0.00 0.00 47 1012.2
20260905183017 98 315 0.9 4.3 0.00 0.00 0.00 46 1012.2
20260905182512 97 271 0.9 7.0 0.00 0.00 0.00 48 1012.2
20260905182012 97 360 1.7 7.0 0.00 0.00 0.00 47 1012.2
20260905181528 97 267 1.7 5.2 0.00 0.00 0.00 47 1012.3
20260905181015 98 9 0.9 4.3 0.00 0.00 0.00 47 1012.3
20260905180504 98 14 0.9 3.5 0.00 0.00 0.00 46 1012.3
20260905180003 97 321 0.0 5.2 0.00 0.00 0.00 50 1012.4
20260905175504 97 306 0.0 5.2 0.00 0.00 0.00 50 1012.5
20260905175008 96 123 0.9 2.6 0.00 0.00 0.00 52 1012.6
20260905174518 96 150 0.0 2.6 0.00 0.00 0.00 53 1012.5
20260905174011 95 174 0.0 2.6 0.00 0.00 0.00 50 1012.6
20260905173511 95 245 0.9 2.6 0.00 0.00 0.00 51 1012.7
20260905173016 95 153 0.0 2.6 0.00 0.00 0.00 52 1012.7
20260905172512 95 311 0.9 5.2 0.00 0.00 0.00 50 1012.8
20260905172012 95 97 0.9 5.2 0.00 0.00 0.00 53 1013.0
20260905171527 94 183 2.6 5.2 0.00 0.00 0.00 53 1013.2
20260905171011 95 352 0.9 3.5 0.00 0.00 0.00 56 1013.3
20260905170516 94 118 0.0 2.6 0.00 0.00 0.00 54 1013.3
20260905170026 94 177 0.9 3.5 0.00 0.00 0.00 53 1013.4
20260905165507 94 244 1.7 3.5 0.00 0.00 0.00 54 1013.4
20260905165008 93 262 0.9 3.5 0.00 0.00 0.00 55 1013.4
20260905164507 93 133 1.7 3.5 0.00 0.00 0.00 55 1013.5
20260905164004 92 190 0.9 5.2 0.00 0.00 0.00 56 1013.5
20260905163508 92 198 0.0 6.1 0.00 0.00 0.00 57 1013.5
20260905163012 92 173 0.9 6.1 0.00 0.00 0.00 57 1013.6
20260905162507 91 171 2.6 6.1 0.00 0.00 0.00 58 1013.5
20260905162013 91 202 3.5 6.1 0.00 0.00 0.00 58 1013.5
20260905161534 92 101 2.6 4.3 0.00 0.00 0.00 59 1013.6
20260905161012 92 139 1.7 3.5 0.00 0.00 0.00 60 1013.6
20260905160511 91 139 0.9 4.3 0.00 0.00 0.00 59 1013.6
20260905160028 92 48 0.9 4.3 0.00 0.00 0.00 59 1013.7
20260905155514 91 348 0.0 1.7 0.00 0.00 0.00 58 1013.9
20260905155013 90 63 0.0 2.6 0.00 0.00 0.00 60 1014.0
20260905154504 91 175 0.0 3.5 0.00 0.00 0.00 62 1014.0
20260905154009 91 39 0.0 5.2 0.00 0.00 0.00 60 1013.9
20260905153507 90 182 1.7 5.2 0.00 0.00 0.00 61 1013.9
20260905153014 91 343 0.9 3.5 0.00 0.00 0.00 61 1013.9
20260905152510 90 36 1.7 3.5 0.00 0.00 0.00 62 1013.9
20260905152007 90 44 0.9 2.6 0.00 0.00 0.00 62 1014.0
20260905151519 89 352 0.0 1.7 0.00 0.00 0.00 64 1014.0
20260905151012 90 160 0.0 2.6 0.00 0.00 0.00 64 1013.8
20260905150511 90 126 0.0 3.5 0.00 0.00 0.00 63 1013.8
20260905150037 89 126 1.7 3.5 0.00 0.00 0.00 65 1013.8
20260905145513 89 66 1.7 2.6 0.00 0.00 0.00 63 1013.9
20260905145014 89 41 0.0 3.5 0.00 0.00 0.00 64 1014.0
20260905144533 88 267 0.9 4.3 0.00 0.00 0.00 63 1013.9
20260905144017 88 349 0.0 4.3 0.00 0.00 0.00 64 1013.9
20260905143504 87 33 0.0 3.5 0.00 0.00 0.00 65 1014.1
20260905143008 87 341 0.0 1.7 0.00 0.00 0.00 65 1014.0
20260905142510 87 5 0.9 1.7 0.00 0.00 0.00 65 1013.8
20260905142013 88 223 0.0 2.6 0.00 0.00 0.00 66 1013.8
20260905141512 87 352 0.9 2.6 0.00 0.00 0.00 66 1013.9
20260905141010 87 5 0.9 2.6 0.00 0.00 0.00 66 1013.7
20260905140512 86 329 0.9 2.6 0.00 0.00 0.00 65 1013.7
20260905140023 86 346 0.9 5.2 0.00 0.00 0.00 66 1013.7
20260905135512 86 352 0.9 5.2 0.00 0.00 0.00 68 1013.6
20260905135014 85 200 0.0 2.6 0.00 0.00 0.00 70 1013.6
20260905134529 84 206 0.0 2.6 0.00 0.00 0.00 71 1013.7
20260905134016 84 169 0.0 1.7 0.00 0.00 0.00 72 1013.8
20260905133514 84 202 0.0 1.7 0.00 0.00 0.00 73 1013.8
20260905133030 83 184 0.9 1.7 0.00 0.00 0.00 74 1013.9
20260905132507 82 210 0.9 2.6 0.00 0.00 0.00 76 1013.8
20260905132008 82 161 0.9 2.6 0.00 0.00 0.00 76 1013.8
20260905131529 82 173 1.7 2.6 0.00 0.00 0.00 74 1013.8
20260905131010 82 185 0.9 2.6 0.00 0.00 0.00 75 1013.9
20260905130509 82 196 0.0 0.0 0.00 0.00 0.00 77 1013.9
20260905130019 81 225 0.0 1.7 0.00 0.00 0.00 77 1013.9
20260905125512 80 165 0.0 1.7 0.00 0.00 0.00 77 1014.0
20260905125014 80 178 0.0 1.7 0.00 0.00 0.00 77 1014.0
20260905124526 80 147 0.0 1.7 0.00 0.00 0.00 78 1014.0
20260905124015 80 153 0.0 1.7 0.00 0.00 0.00 78 1013.9
20260905123513 80 153 0.0 0.9 0.00 0.00 0.00 78 1013.8
20260905123038 80 240 0.0 0.0 0.00 0.00 0.00 77 1013.9
20260905122518 80 240 0.0 0.0 0.00 0.00 0.00 77 1014.0
20260905122016 80 240 0.0 0.0 0.00 0.00 0.00 77 1014.0
20260905121537 79 254 0.0 0.0 0.00 0.00 0.00 77 1013.8
20260905121019 0 0.0 0.0 0.00 0.00 0.00 1013.8
20260905120520 0 0.0 0.0 0.00 0.00 0.00 1013.7
20260905120048 0 0.0 0.0 0.00 0.00 0.00 1013.7
20260905115519 0 0.0 0.0 0.00 0.00 0.00 1013.8
20260905115018 0 0.0 0.0 0.00 0.00 0.00 1013.7
20260905114535 0 0.0 0.0 0.00 0.00 0.00 1013.6
20260905114018 0 0.0 0.0 0.00 0.00 0.00 1013.5
20260905113519 0 0.0 0.0 0.00 0.00 0.00 1013.5
20260905113037 0 0.0 0.0 0.00 0.00 0.00 1013.4
20260905112520 0 0.0 0.0 0.00 0.00 0.00 1013.4
20260905112021 0 0.0 0.0 0.00 0.00 0.00 1013.4
20260905111545 0 0.0 0.0 0.00 0.00 0.00 1013.3
20260905111019 0 0.0 0.0 0.00 0.00 0.00 1013.3
20260905110518 0 0.0 0.0 0.00 0.00 0.00 1013.1
20260905110039 0 0.0 0.0 0.00 0.00 0.00 1013.1
20260905105521 0 0.0 0.0 0.00 0.00 0.00 1013.1
20260905105021 0 0.0 0.0 0.00 0.00 0.00 1013.0
20260905104551 0 0.0 0.0 0.00 0.00 0.00 1013.1
20260905104019 0 0.0 0.0 0.00 0.00 0.00 1013.0
20260905103518 0 0.0 0.0 0.00 0.00 0.00 1013.0
20260905103039 0 0.0 0.0 0.00 0.00 0.00 1013.1
20260905102521 0 0.0 0.0 0.00 0.00 0.00 1013.2
20260905102018 0 0.0 0.0 0.00 0.00 0.00 1013.3
20260905101538 0 0.0 0.0 0.00 0.00 0.00 1013.3
20260905101015 0 0.0 0.0 0.00 0.00 0.00 1013.2
20260905100521 0 0.0 0.0 0.00 0.00 0.00 1013.3
20260905100036 0 0.0 0.0 0.00 0.00 0.00 1013.2
20260905095518 0 0.0 0.0 0.00 0.00 0.00 1013.2
20260905095019 0 0.0 0.0 0.00 0.00 0.00 1013.3
20260905094620 0 0.0 0.0 0.00 0.00 0.00 1013.2
20260905094020 0 0.0 0.0 0.00 0.00 0.00 1013.2
20260905093520 0 0.0 0.0 0.00 0.00 0.00 1013.1
20260905093037 0 0.0 0.0 0.00 0.00 0.00 1013.0
20260905092517 0 0.0 0.0 0.00 0.00 0.00 1013.0
20260905092023 0 0.0 0.0 0.00 0.00 0.00 1013.0
20260905091539 0 0.0 0.0 0.00 0.00 0.00 1012.9
20260905091018 0 0.0 0.0 0.00 0.00 0.00 1012.9
20260905090522 0 0.0 0.0 0.00 0.00 0.00 1012.9
20260905090037 0 0.0 0.0 0.00 0.00 0.00 1012.8
20260905085517 81 306 0.0 0.0 0.00 0.00 0.00 73 1012.8
20260905085004 81 303 0.0 0.0 0.00 0.00 0.00 73 1012.6
20260905084505 81 285 0.0 0.0 0.00 0.00 0.00 73 1012.7
20260905084004 80 297 0.0 0.0 0.00 0.00 0.00 75 1012.7
20260905083504 80 279 0.0 0.0 0.00 0.00 0.00 76 1012.5
20260905083004 81 282 0.0 0.0 0.00 0.00 0.00 74 1012.5
20260905082504 80 282 0.0 0.0 0.00 0.00 0.00 75 1012.5
20260905082006 81 293 0.0 0.0 0.00 0.00 0.00 74 1012.5
20260905081504 81 303 0.0 0.0 0.00 0.00 0.00 75 1012.6
20260905081003 81 303 0.0 0.0 0.00 0.00 0.00 74 1012.7
20260905080506 81 303 0.0 0.0 0.00 0.00 0.00 75 1012.7
20260905080006 81 303 0.0 0.0 0.00 0.00 0.00 75 1012.7
20260905075504 81 311 0.0 0.0 0.00 0.00 0.00 76 1012.8
20260905075004 80 291 0.0 0.0 0.00 0.00 0.00 77 1012.7
20260905074504 80 275 0.0 0.0 0.00 0.00 0.00 78 1012.8
20260905074004 80 267 0.0 0.0 0.00 0.00 0.00 77 1012.8
20260905073507 81 202 0.0 0.0 0.00 0.00 0.00 76 1012.8
20260905073003 81 202 0.0 0.9 0.00 0.00 0.00 75 1012.9
20260905072505 81 202 0.0 0.9 0.00 0.00 0.00 76 1012.9
20260905072004 81 211 0.0 0.0 0.00 0.00 0.00 76 1013.0
20260905071504 81 188 0.0 0.0 0.00 0.00 0.00 76 1013.0
20260905071002 81 207 0.0 0.0 0.00 0.00 0.00 76 1013.1
20260905070502 81 207 0.0 0.0 0.00 0.00 0.00 77 1013.0
20260905070004 81 207 0.0 0.0 0.00 0.00 0.00 78 1012.9
20260905065508 81 207 0.0 0.0 0.00 0.00 0.00 78 1012.9
20260905065007 81 207 0.0 0.0 0.00 0.00 0.00 78 1012.9
20260905064504 81 188 0.0 0.0 0.00 0.00 0.00 78 1012.9
20260905064004 81 188 0.0 0.0 0.00 0.00 0.00 78 1012.9
20260905063504 81 188 0.0 0.0 0.00 0.00 0.00 78 1013.0
20260905063007 81 188 0.0 0.0 0.00 0.00 0.00 78 1013.1
20260905062504 81 188 0.0 0.0 0.00 0.00 0.00 80 1013.1
20260905062004 81 188 0.0 0.0 0.00 0.00 0.00 80 1013.2
20260905061506 81 188 0.0 0.0 0.00 0.00 0.00 79 1013.2
20260905061004 81 188 0.0 0.0 0.00 0.00 0.00 78 1013.2
20260905060503 82 188 0.0 0.0 0.00 0.00 0.00 77 1013.2
20260905060009 82 188 0.0 0.0 0.00 0.00 0.00 77 1013.3
20260905055503 82 188 0.0 0.0 0.00 0.00 0.00 76 1013.3
20260905055004 83 188 0.0 0.0 0.00 0.00 0.00 75 1013.4
20260905054513 83 188 0.0 0.0 0.00 0.00 0.00 75 1013.4
20260905054004 83 188 0.0 0.0 0.00 0.00 0.00 74 1013.5
20260905053504 83 188 0.0 0.0 0.00 0.00 0.00 74 1013.5
20260905053008 83 188 0.0 0.0 0.00 0.00 0.00 73 1013.6
20260905052504 84 188 0.0 0.0 0.00 0.00 0.00 73 1013.6
20260905052005 84 188 0.0 0.0 0.00 0.00 0.00 73 1013.5
20260905051525 83 267 0.0 0.0 0.00 0.00 0.00 74 1013.5
20260905051006 83 267 0.0 0.0 0.00 0.00 0.00 73 1013.5
20260905050506 83 267 0.0 0.0 0.00 0.00 0.00 74 1013.5
20260905050005 83 267 0.0 0.0 0.00 0.00 0.00 74 1013.4
20260905045506 83 274 0.0 0.0 0.00 0.00 0.00 75 1013.4
20260905045004 82 255 0.0 0.0 0.00 0.00 0.00 76 1013.4
20260905044510 83 242 0.0 0.0 0.00 0.00 0.00 75 1013.5
20260905044003 83 180 0.0 0.0 0.00 0.00 0.00 74 1013.4
20260905043504 84 180 0.0 0.0 0.00 0.00 0.00 73 1013.4
20260905043013 84 180 0.0 0.0 0.00 0.00 0.00 73 1013.4
20260905042504 83 180 0.0 0.0 0.00 0.00 0.00 73 1013.4
20260905042006 84 180 0.0 0.0 0.00 0.00 0.00 73 1013.4
20260905041508 84 180 0.0 0.0 0.00 0.00 0.00 74 1013.5
20260905041016 83 180 0.0 0.0 0.00 0.00 0.00 76 1013.6
20260905040505 83 180 0.0 0.0 0.00 0.00 0.00 77 1013.5
20260905040010 83 180 0.0 0.0 0.00 0.00 0.00 77 1013.6
20260905035506 82 180 0.0 0.0 0.00 0.00 0.00 78 1013.5
20260905035006 83 180 0.0 1.7 0.00 0.00 0.00 77 1013.5
20260905034509 83 180 0.0 1.7 0.00 0.00 0.00 77 1013.5
20260905034004 83 166 0.0 0.0 0.00 0.00 0.00 77 1013.6
20260905033506 82 166 0.0 0.0 0.00 0.00 0.00 79 1013.6
20260905033008 83 166 0.0 0.0 0.00 0.00 0.00 79 1013.5
20260905032508 83 166 0.0 2.6 0.00 0.00 0.00 77 1013.6
20260905032008 83 166 0.0 2.6 0.00 0.00 0.00 78 1013.6
20260905031514 83 180 0.0 0.0 0.00 0.00 0.00 78 1013.6
20260905031009 84 180 0.0 0.0 0.00 0.00 0.00 78 1013.6
20260905030505 84 180 0.0 0.0 0.00 0.00 0.00 77 1013.7
20260905030009 84 180 0.0 0.0 0.00 0.00 0.00 77 1013.7
20260905025505 84 180 0.0 0.0 0.00 0.00 0.00 77 1013.7
20260905025006 84 180 0.0 0.0 0.00 0.00 0.00 77 1013.7
20260905024525 84 180 0.0 0.0 0.00 0.00 0.00 76 1013.7
20260905024006 84 180 0.0 0.0 0.00 0.00 0.00 76 1013.7
20260905023508 84 180 0.0 0.0 0.00 0.00 0.00 76 1013.7
20260905023018 84 180 0.0 0.0 0.00 0.00 0.00 75 1013.6
20260905022507 85 180 0.0 0.0 0.00 0.00 0.00 75 1013.6
20260905022008 85 180 0.0 0.0 0.00 0.00 0.00 74 1013.6
20260905021510 85 180 0.0 0.0 0.00 0.00 0.00 74 1013.6
20260905021007 85 180 0.0 0.0 0.00 0.00 0.00 75 1013.6
20260905020510 85 180 0.0 0.0 0.00 0.00 0.00 75 1013.5
20260905020011 85 180 0.0 0.0 0.00 0.00 0.00 74 1013.5
20260905015506 85 180 0.0 0.0 0.00 0.00 0.00 73 1013.5
20260905015006 85 180 0.0 0.0 0.00 0.00 0.00 74 1013.5
20260905014512 86 180 0.0 0.0 0.00 0.00 0.00 72 1013.4
20260905014007 86 180 0.0 0.0 0.00 0.00 0.00 70 1013.3
20260905013508 86 180 0.0 0.0 0.00 0.00 0.00 67 1013.2
20260905013010 86 180 0.0 0.0 0.00 0.00 0.00 69 1013.2
20260905012508 86 180 0.0 0.0 0.00 0.00 0.00 68 1013.2
20260905012008 87 180 0.0 0.0 0.00 0.00 0.00 68 1013.2
20260905011512 87 180 0.0 0.0 0.00 0.00 0.00 68 1013.1
20260905011011 87 180 0.0 0.0 0.00 0.00 0.00 67 1013.1
20260905010510 88 180 0.0 0.0 0.00 0.00 0.00 64 1012.9
20260905010009 88 180 0.0 0.0 0.00 0.00 0.00 66 1012.9
20260905005510 88 180 0.0 0.0 0.00 0.00 0.00 65 1012.9
20260905005010 88 180 0.0 0.0 0.00 0.00 0.00 67 1012.8
20260905004512 88 180 0.0 0.0 0.00 0.00 0.00 66 1012.8
20260905004011 88 180 0.0 0.0 0.00 0.00 0.00 66 1012.7
20260905003507 89 180 0.0 0.0 0.00 0.00 0.00 66 1012.6
20260905003013 89 180 0.0 0.0 0.00 0.00 0.00 65 1012.7
20260905002511 90 180 0.0 0.0 0.00 0.00 0.00 62 1012.6
20260905002009 90 180 0.0 0.0 0.00 0.00 0.00 62 1012.5
20260905001513 91 180 0.0 0.0 0.00 0.00 0.00 62 1012.6
20260905001010 91 180 0.0 0.9 0.00 0.00 0.00 61 1012.7
20260905000508 92 180 0.0 2.6 0.00 0.00 0.00 60 1012.7
20260905000014 92 180 0.9 2.6 0.00 0.00 0.00 58 1012.7
20260904235510 92 247 0.0 0.0 0.00 0.00 0.00 57 1012.7
20260904235009 93 247 0.0 0.0 0.00 0.00 0.00 56 1012.7
20260904234511 94 247 0.0 0.0 0.00 0.00 0.00 55 1012.7
20260904234009 94 247 0.0 0.0 0.00 0.00 0.00 54 1012.7
20260904233507 94 247 0.0 0.0 0.00 0.00 0.00 52 1012.6
20260904233013 94 247 0.0 0.0 0.00 0.00 0.00 52 1012.6
20260904232509 95 247 0.0 0.0 0.00 0.00 0.00 50 1012.5
20260904232007 95 247 0.0 0.0 0.00 0.00 0.00 50 1012.5
20260904231518 95 247 0.0 0.0 0.00 0.00 0.00 47 1012.5
20260904231008 95 247 0.0 0.0 0.00 0.00 0.00 48 1012.5
20260904230510 95 247 0.0 0.0 0.00 0.00 0.00 46 1012.5
20260904230017 96 247 0.0 0.0 0.00 0.00 0.00 47 1012.5
20260904225513 96 244 0.0 0.0 0.00 0.00 0.00 45 1012.5
20260904225009 97 244 0.0 0.0 0.00 0.00 0.00 44 1012.5
20260904224515 97 215 0.0 1.7 0.00 0.00 0.00 44 1012.5
20260904224015 98 248 0.0 1.7 0.00 0.00 0.00 42 1012.5
20260904223510 98 280 0.9 1.7 0.00 0.00 0.00 41 1012.6
20260904223016 98 271 0.0 1.7 0.00 0.00 0.00 42 1012.7
20260904222514 98 248 0.9 1.7 0.00 0.00 0.00 41 1012.7
20260904222010 98 327 0.9 5.2 0.00 0.00 0.00 42 1012.7
20260904221517 97 279 0.9 5.2 0.00 0.00 0.00 42 1012.7
20260904221013 98 202 0.9 5.2 0.00 0.00 0.00 41 1012.7
20260904220510 99 303 0.9 5.2 0.00 0.00 0.00 41 1012.7
20260904220014 99 209 1.7 4.3 0.00 0.00 0.00 42 1012.8
20260904215511 99 334 1.7 7.0 0.00 0.00 0.00 41 1012.8
20260904215013 99 230 1.7 7.0 0.00 0.00 0.00 42 1012.8
20260904214518 99 327 0.9 4.3 0.00 0.00 0.00 41 1012.8
20260904214011 98 348 1.7 5.2 0.00 0.00 0.00 41 1012.8
20260904213511 98 335 1.7 5.2 0.00 0.00 0.00 42 1012.8
20260904213018 98 187 2.6 5.2 0.00 0.00 0.00 42 1012.8
20260904212512 98 196 2.6 6.1 0.00 0.00 0.00 43 1012.9
20260904212013 98 182 0.9 6.1 0.00 0.00 0.00 42 1012.9
20260904211517 99 260 2.6 6.1 0.00 0.00 0.00 41 1013.0
20260904211019 99 247 0.9 6.1 0.00 0.00 0.00 40 1013.0
20260904210511 98 159 2.6 6.1 0.00 0.00 0.00 41 1013.0
20260904210018 98 198 3.5 6.1 0.00 0.00 0.00 42 1013.1
20260904205513 98 201 0.0 6.1 0.00 0.00 0.00 43 1013.1
20260904205006 98 180 1.7 6.1 0.00 0.00 0.00 40 1013.2
20260904204510 99 266 1.7 5.2 0.00 0.00 0.00 41 1013.2
20260904204008 99 242 1.7 6.1 0.00 0.00 0.00 41 1013.3
20260904203503 99 321 2.6 6.1 0.00 0.00 0.00 41 1013.4
20260904203008 100 360 1.7 6.1 0.00 0.00 0.00 41 1013.4
20260904202503 99 338 1.7 6.1 0.00 0.00 0.00 41 1013.5
20260904202004 99 310 2.6 7.0 0.00 0.00 0.00 40 1013.6
20260904201506 99 146 3.5 7.0 0.00 0.00 0.00 40 1013.6
20260904201005 99 287 2.6 7.0 0.00 0.00 0.00 42 1013.5
20260904200512 99 349 1.7 6.1 0.00 0.00 0.00 42 1013.7
20260904200026 99 207 1.7 6.1 0.00 0.00 0.00 43 1013.8
20260904195511 99 162 1.7 7.8 0.00 0.00 0.00 43 1013.9
20260904195009 99 227 0.9 7.8 0.00 0.00 0.00 41 1014.1
20260904194508 99 96 0.9 6.1 0.00 0.00 0.00 41 1014.1
20260904194011 99 240 1.7 6.1 0.00 0.00 0.00 42 1014.1
20260904193508 99 209 2.6 6.1 0.00 0.00 0.00 42 1014.3
20260904193015 99 209 1.7 7.0 0.00 0.00 0.00 42 1014.4
20260904192504 99 216 1.7 7.0 0.00 0.00 0.00 42 1014.6
20260904192004 99 279 2.6 6.1 0.00 0.00 0.00 42 1014.6
20260904191505 99 281 2.6 7.8 0.00 0.00 0.00 41 1014.6